When you browse on this site, cookies collect data to enhance your experience and personalize the content and advertising you see.
Visit our Privacy Policy to learn more. By continuing to use the site, you agree to this use of cookies and data.
EN

Hourly Weather Albena

Today, 10 July, Friday

Time Temperature Precipitation Wind Pressure Humidity
00:00 +19°C° 0 mm 1 mps 749 mmHg 72%
01:00 +19°C° 0 mm 1 mps 749 mmHg 73%
02:00 +18°C° 0 mm 1 mps 749 mmHg 75%
03:00 +17°C° 0 mm 2 mps 749 mmHg 75%
04:00 +17°C° 0 mm 2 mps 749 mmHg 76%
05:00 +17°C° 0 mm 3 mps 749 mmHg 76%
06:00 +19°C° 0 mm 3 mps 749 mmHg 70%
07:00 +21°C° 0 mm 4 mps 749 mmHg 63%
08:00 +23°C° 0 mm 5 mps 750 mmHg 56%
09:00 +25°C° 0 mm 5 mps 750 mmHg 53%
10:00 +26°C° 0 mm 5 mps 750 mmHg 49%
11:00 +27°C° 0 mm 5 mps 750 mmHg 46%
12:00 +27°C° 0 mm 5 mps 749 mmHg 46%
13:00 +27°C° 0 mm 5 mps 749 mmHg 45%
14:00 +28°C° 0 mm 6 mps 749 mmHg 45%
15:00 +27°C° 0 mm 5 mps 749 mmHg 47%
16:00 +27°C° 0 mm 5 mps 749 mmHg 49%
17:00 +26°C° 0 mm 5 mps 749 mmHg 52%
18:00 +25°C° 0 mm 5 mps 749 mmHg 58%
19:00 +22°C° 0 mm 4 mps 749 mmHg 65%
20:00 +20°C° 0 mm 4 mps 748 mmHg 72%
21:00 +20°C° 0 mm 4 mps 749 mmHg 75%
22:00 +19°C° 0 mm 4 mps 749 mmHg 78%
23:00 +18°C° 0 mm 3 mps 749 mmHg 81%

Tomorrow, 11 July, Saturday

Time Temperature Precipitation Wind Pressure Humidity
00:00 +18°C° 0 mm 3 mps 749 mmHg 83%
01:00 +18°C° 0 mm 3 mps 748 mmHg 85%
02:00 +18°C° 0 mm 3 mps 748 mmHg 86%
03:00 +18°C° 0 mm 3 mps 748 mmHg 87%
04:00 +18°C° 0 mm 3 mps 748 mmHg 88%
05:00 +17°C° 0 mm 3 mps 747 mmHg 89%
06:00 +20°C° 0 mm 3 mps 748 mmHg 83%
07:00 +22°C° 0 mm 4 mps 748 mmHg 76%
08:00 +25°C° 0 mm 4 mps 748 mmHg 70%
09:00 +26°C° 0 mm 4 mps 748 mmHg 64%
10:00 +27°C° 0 mm 5 mps 748 mmHg 58%
11:00 +28°C° 0 mm 5 mps 748 mmHg 52%
12:00 +28°C° 0 mm 5 mps 748 mmHg 52%
13:00 +28°C° 0 mm 5 mps 747 mmHg 52%
14:00 +28°C° 0 mm 5 mps 747 mmHg 52%
15:00 +28°C° 0 mm 5 mps 747 mmHg 55%
16:00 +27°C° 0 mm 5 mps 747 mmHg 57%
17:00 +27°C° 0 mm 5 mps 746 mmHg 59%
18:00 +25°C° 0 mm 4 mps 746 mmHg 67%
19:00 +23°C° 0 mm 4 mps 746 mmHg 75%
20:00 +21°C° 0 mm 3 mps 746 mmHg 84%
21:00 +20°C° 0 mm 3 mps 746 mmHg 86%
22:00 +19°C° 0 mm 2 mps 746 mmHg 88%
23:00 +19°C° 0 mm 2 mps 746 mmHg 90%

Day after tomorrow, 12 July, Sunday

Time Temperature Precipitation Wind Pressure Humidity
00:00 +18°C° 0 mm 2 mps 745 mmHg 90%
01:00 +18°C° 0 mm 2 mps 745 mmHg 90%
02:00 +18°C° 0 mm 2 mps 744 mmHg 91%
03:00 +17°C° 0 mm 2 mps 744 mmHg 90%
04:00 +17°C° 0 mm 2 mps 744 mmHg 90%
05:00 +17°C° 0 mm 2 mps 744 mmHg 90%
06:00 +19°C° 0 mm 3 mps 744 mmHg 82%
07:00 +21°C° 0 mm 3 mps 744 mmHg 73%
08:00 +24°C° 0 mm 3 mps 745 mmHg 65%
09:00 +26°C° 0 mm 3 mps 745 mmHg 58%
10:00 +27°C° 0 mm 3 mps 745 mmHg 52%
11:00 +29°C° 0 mm 3 mps 745 mmHg 45%
12:00 +29°C° 0 mm 3 mps 745 mmHg 44%
13:00 +30°C° 0 mm 3 mps 745 mmHg 43%
14:00 +32°C° 0 mm 4 mps 744 mmHg 42%
15:00 +30°C° 0 mm 3 mps 744 mmHg 44%
16:00 +30°C° 0 mm 3 mps 744 mmHg 46%
17:00 +29°C° 0 mm 2 mps 743 mmHg 48%
18:00 +27°C° 0 mm 2 mps 743 mmHg 54%
19:00 +25°C° 0 mm 1 mps 743 mmHg 60%
20:00 +22°C° 0 mm 0 mps 743 mmHg 66%
21:00 +23°C° 0 mm 1 mps 744 mmHg 67%
22:00 +23°C° 0 mm 2 mps 744 mmHg 67%
23:00 +22°C° 0 mm 3 mps 744 mmHg 67%

13 July, Monday

Time Temperature Precipitation Wind Pressure Humidity
00:00 +21°C° 0 mm 4 mps 744 mmHg 72%
01:00 +20°C° 0 mm 6 mps 744 mmHg 77%
02:00 +18°C° 0 mm 8 mps 744 mmHg 82%
03:00 +17°C° 0 mm 8 mps 744 mmHg 82%
04:00 +16°C° 0 mm 7 mps 744 mmHg 83%
05:00 +15°C° 0 mm 7 mps 744 mmHg 83%
06:00 +15°C° 0 mm 7 mps 745 mmHg 81%
07:00 +16°C° 0 mm 7 mps 745 mmHg 78%
08:00 +16°C° 0 mm 7 mps 745 mmHg 76%
09:00 +16°C° 0 mm 7 mps 746 mmHg 73%
10:00 +17°C° 0 mm 7 mps 746 mmHg 70%
11:00 +18°C° 0 mm 7 mps 746 mmHg 67%
12:00 +18°C° 0 mm 7 mps 746 mmHg 65%
13:00 +18°C° 0 mm 7 mps 746 mmHg 63%
14:00 +18°C° 0 mm 8 mps 746 mmHg 61%
15:00 +20°C° 0 mm 7 mps 746 mmHg 57%
16:00 +21°C° 0 mm 7 mps 746 mmHg 54%
17:00 +22°C° 0 mm 6 mps 746 mmHg 50%
18:00 +21°C° 0 mm 6 mps 746 mmHg 58%
19:00 +19°C° 0 mm 5 mps 746 mmHg 65%
20:00 +16°C° 0 mm 5 mps 746 mmHg 73%
21:00 +15°C° 0 mm 5 mps 746 mmHg 78%
22:00 +14°C° 0 mm 4 mps 747 mmHg 83%
23:00 +13°C° 0 mm 4 mps 747 mmHg 89%

14 July, Tuesday

Time Temperature Precipitation Wind Pressure Humidity
00:00 +13°C° 0 mm 4 mps 747 mmHg 89%
01:00 +13°C° 0 mm 4 mps 747 mmHg 90%
02:00 +13°C° 0 mm 4 mps 747 mmHg 90%
03:00 +12°C° 0 mm 4 mps 747 mmHg 89%
04:00 +12°C° 0 mm 4 mps 747 mmHg 88%
05:00 +12°C° 0 mm 4 mps 747 mmHg 86%
06:00 +14°C° 0 mm 4 mps 747 mmHg 77%
07:00 +17°C° 0 mm 4 mps 747 mmHg 67%
08:00 +19°C° 0 mm 4 mps 747 mmHg 57%
09:00 +21°C° 0 mm 4 mps 747 mmHg 52%
10:00 +22°C° 0 mm 4 mps 747 mmHg 46%
11:00 +25°C° 0 mm 4 mps 748 mmHg 41%
12:00 +25°C° 0 mm 4 mps 747 mmHg 41%
13:00 +26°C° 0 mm 4 mps 747 mmHg 41%
14:00 +26°C° 0 mm 4 mps 747 mmHg 40%
15:00 +25°C° 0 mm 4 mps 747 mmHg 44%
16:00 +25°C° 0 mm 4 mps 746 mmHg 47%
17:00 +23°C° 0 mm 4 mps 746 mmHg 50%
18:00 +22°C° 0 mm 3 mps 746 mmHg 57%
19:00 +20°C° 0 mm 2 mps 746 mmHg 64%
20:00 +18°C° 0 mm 2 mps 746 mmHg 72%
21:00 +18°C° 0 mm 1 mps 747 mmHg 74%
22:00 +18°C° 0 mm 1 mps 747 mmHg 76%
23:00 +16°C° 0 mm 1 mps 747 mmHg 78%

15 July, Wednesday

Time Temperature Precipitation Wind Pressure Humidity
00:00 +16°C° 0 mm 1 mps 747 mmHg 79%
01:00 +16°C° 0 mm 1 mps 747 mmHg 80%
02:00 +15°C° 0 mm 2 mps 747 mmHg 82%
03:00 +15°C° 0 mm 2 mps 747 mmHg 81%
04:00 +15°C° 0 mm 2 mps 747 mmHg 81%
05:00 +15°C° 0 mm 2 mps 747 mmHg 81%
06:00 +17°C° 0 mm 2 mps 747 mmHg 72%
07:00 +19°C° 0 mm 2 mps 747 mmHg 62%
08:00 +21°C° 0 mm 2 mps 747 mmHg 53%
09:00 +24°C° 0 mm 2 mps 748 mmHg 48%
10:00 +25°C° 0 mm 3 mps 748 mmHg 43%
11:00 +26°C° 0 mm 3 mps 748 mmHg 39%
12:00 +27°C° 0 mm 3 mps 748 mmHg 40%
13:00 +27°C° 0 mm 4 mps 747 mmHg 40%
14:00 +27°C° 0 mm 4 mps 747 mmHg 41%
15:00 +27°C° 0 mm 4 mps 747 mmHg 44%
16:00 +26°C° 0 mm 4 mps 747 mmHg 46%
17:00 +26°C° 0 mm 4 mps 746 mmHg 48%
18:00 +23°C° 0 mm 4 mps 746 mmHg 56%
19:00 +21°C° 0 mm 3 mps 747 mmHg 64%
20:00 +19°C° 0 mm 3 mps 747 mmHg 72%
21:00 +19°C° 0 mm 2 mps 747 mmHg 75%
22:00 +18°C° 0 mm 2 mps 747 mmHg 77%
23:00 +18°C° 0 mm 1 mps 747 mmHg 80%
Show more